SCP
0 0 0 0 0 0 0 0 0 0 0 0 0 0 0 0 0 0 0 0 0 0 0 0 0 0 0 0 0 0 0 0 0 0 0 0 0 0 0 0 0 0 0
0 0 0 0 0 0 0 0 0 0 0 0 0 0 0 0 0 0 0 0 0 0 0 0 0 0 0 0 0 0 0 0 0 0 0 0 0 0 0 0 0 0 0
1 0 0 0 0 0 0 0 0 0 0 0 0 0 0 0 0 0 0 0 0 0 0 0 0 0 0 0 0 0 0 0 0 0 0 0 0 0 0 0 0 0 0
1 1 1 0 0 0 0 0 0 0 0 0 0 0 0 0 0 0 0 0 0 0 0 0 0 0 0 0 0 0 0 0 0 0 0 0 0 0 0 0 0 0 0
1 1 1 1 1 0 0 0 0 0 0 0 0 0 0 0 0 0 0 0 0 0 0 0 0 0 0 0 0 0 0 0 0 0 0 0 0 0 0 0 0 0 0
1 1 1 1 1 1 1 0 0 0 0 0 0 0 0 0 0 0 0 0 0 0 0 0 0 0 0 0 0 0 0 0 0 0 0 0 0 0 0 0 0 0 0
1 1 1 1 1 1 1 0 0 0 0 0 0 0 0 0 0 0 0 0 0 0 0 0 0 0 0 0 0 0 0 0 0 0 0 0 0 0 0 0 0 0 0
1 1 1 1 1 1 1 0 0 0 0 0 0 0 0 0 0 0 0 0 0 0 0 0 0 0 0 0 0 0 0 0 0 0 0 0 0 0 0 0 0 0 0
1 1 1 1 1 1 1 0 0 0 0 0 0 0 0 0 0 0 0 0 0 0 0 0 0 0 0 0 0 0 0 0 0 0 0 0 0 0 0 0 0 0 0
1 1 1 1 1 1 1 0 0 0 0 0 0 0 0 0 0 0 0 0 0 0 0 0 0 0 0 0 0 0 0 0 0 0 0 0 0 0 0 0 0 0 0
1 1 1 1 1 1 1 0 0 0 0 0 0 0 0 0 0 0 0 0 0 0 0 0 0 0 0 0 0 0 0 0 0 0 0 0 0 0 0 0 0 0 0
1 1 1 1 1 1 1 0 0 0 0 0 0 0 0 0 0 0 0 0 0 0 0 0 0 0 0 0 0 0 0 0 0 0 0 0 0 0 0 0 0 0 0
0 1 1 1 1 1 1 1 1 1 0 0 0 0 0 0 0 0 0 0 0 0 0 0 0 0 0 0 0 0 0 0 0 0 0 0 0 0 0 0 0 0 0
0 0 1 1 1 1 1 1 1 1 0 0 0 0 0 0 0 0 0 0 0 0 0 0 0 0 0 0 0 0 0 0 0 0 0 0 0 0 0 0 0 0 0
0 0 0 0 0 1 1 1 0 0 0 0 0 0 0 0 0 0 0 0 0 0 0 0 0 0 0 0 0 0 0 0 0 0 0 0 0 0 0 0 0 0 0
0 0 0 0 0 0 0 0 0 0 0 0 0 0 0 0 0 0 0 0 0 0 0 0 0 0 0 0 0 0 0 0 0 0 0 0 0 0 0 0 0 0 0
0 0 0 0 0 0 0 0 0 0 0 0 0 0 0 0 0 0 0 0 0 0 0 0 0 0 0 0 0 0 0 0 0 0 0 0 0 0 0 0 0 0 0
0 0 0 0 0 0 0 0 0 0 0 0 0 0 0 0 0 0 0 0 0 0 0 0 0 0 0 0 0 0 0 0 0 0 0 0 0 0 0 0 0 0 0
0 0 0 0 0 0 0 0 0 0 0 0 0 0 0 0 0 0 0 0 0 0 0 0 0 0 0 0 0 0 0 0 0 0 0 0 0 0 0 0 0 0 0
0 0 0 0 0 0 0 0 0 0 0 0 0 0 0 0 0 0 0 0 0 0 0 0 0 0 0 0 0 0 0 0 0 0 0 0 0 0 0 0 0 0 0
0 0 0 0 0 0 0 0 0 0 0 0 0 0 0 0 0 0 0 0 0 0 0 0 0 0 0 0 0 0 0 0 0 0 0 0 0 0 0 0 0 0 0
0 0 0 0 0 0 0 0 0 0 0 0 0 0 0 0 0 0 0 0 0 0 0 0 0 0 0 0 0 0 0 0 0 0 0 0 0 0 0 0 0 0 0
0 0 0 0 0 0 0 0 0 0 0 0 0 0 0 0 0 0 0 0 0 0 0 0 0 0 0 0 0 0 0 0 0 0 0 0 0 0 0 0 0 0 0
0 0 0 0 0 0 0 0 0 0 0 0 0 0 0 0 0 0 0 0 0 0 0 0 0 0 0 0 0 0 0 0 0 0 0 0 0 0 0 0 0 0 0
0 0 0 0 0 0 0 0 0 0 0 0 0 0 0 0 0 0 0 0 0 0 0 0 0 0 0 0 0 0 0 0 0 0 0 0 0 0 0 0 0 0 0
0 0 0 0 0 0 0 0 0 0 0 0 0 0 0 0 0 0 0 0 0 0 0 0 0 0 0 0 0 0 0 0 0 0 0 0 0 0 0 0 0 0 0
Wind_Speed
4 4 4 5 6 6 6 5 7 8 7 5 5 5 5 5 7 7 6 10 9 8 8 7 7 7 6 6 6 7 7 6 6 6 7 7 7 6 6 5 5 4 4
3 3 3 3 4 4 5 5 6 4 3 2 3 3 4 3 6 9 7 8 10 9 8 8 8 7 6 6 6 6 6 6 6 6 6 6 5 5 4 4 3 3 2
3 4 3 3 3 3 3 4 5 3 3 3 2 2 3 3 4 8 9 7 6 8 8 8 8 7 7 6 6 7 6 6 6 6 6 5 5 4 3 2 2 1 1
3 3 3 2 3 2 2 2 2 1 2 2 2 3 3 3 3 5 7 9 7 7 7 9 8 7 7 7 7 7 7 6 6 6 5 5 4 3 2 1 1 0 1
4 3 3 3 3 2 2 3 2 2 2 2 2 3 3 4 4 5 5 8 9 9 7 9 9 8 7 7 7 7 7 7 6 6 6 5 4 3 2 1 0 0 1
4 3 3 4 3 2 2 2 2 2 1 2 3 3 3 3 3 4 4 4 7 9 10 8 6 6 9 8 8 7 7 7 7 7 6 6 5 4 3 2 1 0 1
6 4 4 4 4 3 3 3 2 2 2 2 1 1 1 2 3 3 3 3 5 7 11 11 8 6 5 9 9 8 8 7 7 7 6 6 5 4 3 2 1 1 1
6 6 6 5 5 4 4 4 3 2 2 2 2 2 1 2 2 3 3 2 3 4 6 9 8 9 7 5 7 10 8 7 7 7 7 6 5 4 3 2 1 0 1
7 6 6 6 6 6 5 5 5 5 3 3 3 3 4 4 2 2 4 4 3 3 3 4 6 8 10 7 7 9 10 8 8 8 7 7 5 5 3 2 1 1 1
6 7 7 7 7 6 6 7 7 5 5 4 3 2 2 3 3 2 2 3 4 4 4 3 3 4 6 8 9 12 13 10 9 9 8 7 6 5 4 3 2 1 1
5 5 6 6 6 5 6 7 6 7 6 5 4 2 2 0 1 2 2 2 1 1 2 2 2 2 4 6 7 11 14 12 10 9 8 8 7 6 5 4 3 2 2
3 4 5 5 6 5 6 7 7 8 7 6 5 4 3 2 2 2 2 2 1 1 0 1 2 1 2 4 8 14 14 13 11 9 8 7 7 6 6 5 3 2 2
2 3 3 4 4 5 6 6 7 7 7 7 6 5 4 3 2 3 3 2 2 1 0 1 0 1 1 2 5 14 12 12 12 10 8 7 6 6 5 5 4 3 2
2 2 2 2 3 4 5 5 5 6 6 6 7 6 4 4 3 3 3 4 2 1 1 1 0 1 1 2 4 8 7 11 11 10 9 8 7 6 4 3 3 2 2
2 2 2 2 1 1 2 3 4 5 5 6 6 6 5 4 3 3 3 3 4 4 3 2 1 1 1 2 5 3 4 10 10 9 8 7 7 6 4 3 2 1 0
5 4 4 3 2 1 0 1 2 4 5 5 4 6 5 4 4 3 3 3 3 4 3 2 2 1 1 2 4 2 2 9 9 8 7 6 6 5 4 3 2 2 1
6 6 5 5 4 3 2 1 1 1 3 3 4 5 5 5 4 4 4 3 3 3 3 1 1 2 2 2 2 2 4 5 4 7 7 6 6 6 5 4 4 3 2
6 6 6 5 6 5 4 2 1 1 2 3 3 4 5 5 5 4 4 4 3 3 3 3 2 2 2 2 2 2 3 5 5 8 8 8 9 8 7 7 6 6 5
7 7 7 7 6 6 5 4 3 2 2 2 3 4 5 6 5 4 4 4 3 3 3 3 3 2 2 2 2 2 4 4 6 8 10 10 10 11 10 9 8 8 7
8 8 8 8 7 7 7 6 4 2 2 2 2 3 4 5 5 5 4 4 4 4 3 3 3 2 2 2 3 3 3 3 4 6 7 8 11 13 12 11 10 9 8
9 7 8 8 7 6 7 7 5 3 3 3 4 4 4 6 6 4 3 4 4 4 4 3 3 3 2 3 3 3 4 5 4 4 5 5 6 6 7 9 10 11 10
7 7 7 7 7 7 10 10 7 3 3 3 4 4 5 5 6 6 6 5 5 5 4 4 3 3 3 3 3 4 5 5 3 3 6 6 6 6 6 5 9 11 11
6 6 6 6 6 8 12 12 10 3 3 4 4 3 4 5 6 5 6 7 6 4 4 4 4 4 4 4 4 4 4 4 4 4 6 6 5 6 5 6 11 11 12
5 5 6 6 5 9 13 12 10 4 3 4 4 4 4 5 4 4 5 6 7 6 4 4 5 5 4 3 4 5 7 7 6 4 4 4 3 4 5 4 9 11 11
4 4 5 5 6 7 13 12 9 3 4 5 6 6 5 5 6 5 6 7 7 6 10 12 11 10 10 9 6 5 6 6 5 2 2 4 4 4 3 3 5 9 9
4 3 4 5 6 6 12 13 11 3 4 4 5 6 9 7 6 5 5 6 7 5 6 6 6 6 6 6 6 5 4 6 5 3 2 4 4 4 3 2 2 2 4
Wind_Direction
221 219 205 190 196 195 195 204 216 224 221 212 203 193 186 175 140 133 139 150 148 150 151 150 145 140 134 129 128 124 122 121 120 120 122 120 121 118 114 111 107 101 96
229 235 229 200 208 214 187 194 225 231 221 212 206 183 169 167 142 142 148 154 155 156 159 161 156 153 151 147 142 138 134 133 132 129 127 125 125 126 122 116 107 99 87
221 244 240 214 213 226 222 203 229 219 208 200 199 201 169 181 157 151 152 157 161 166 167 166 164 166 165 161 156 153 148 146 146 145 141 138 137 136 135 130 119 95 56
229 235 247 233 227 217 230 210 246 220 209 202 192 201 190 165 182 160 158 162 164 168 173 174 170 171 173 172 169 162 160 160 158 154 150 149 147 144 142 143 145 326 319
246 225 231 246 241 234 228 228 216 217 220 210 214 199 191 170 186 189 186 170 162 161 165 176 173 173 176 177 174 171 169 169 166 164 160 157 155 156 155 156 165 310 330
243 233 225 232 236 228 233 239 216 224 232 217 228 211 185 178 182 189 202 167 160 165 160 165 169 180 183 179 177 174 174 174 173 171 167 165 162 159 157 154 154 321 322
224 219 222 219 211 210 216 224 224 223 230 238 216 279 226 208 200 190 195 175 179 166 157 169 176 171 177 182 178 175 174 174 172 171 167 162 155 155 157 162 177 294 315
219 217 211 208 208 205 210 209 216 221 228 229 190 170 218 287 274 205 178 197 202 161 171 174 172 167 169 166 183 177 172 171 171 170 166 157 154 155 159 166 189 264 358
222 215 213 202 206 201 200 199 201 204 213 240 219 170 167 209 238 262 201 190 204 170 186 181 174 168 166 167 165 176 169 168 173 171 167 161 163 163 159 159 152 107 57
227 218 216 209 206 201 200 202 198 196 193 222 247 226 193 160 161 232 260 203 191 186 188 183 184 172 157 152 163 169 171 172 176 177 175 171 170 171 170 163 153 146 159
249 230 218 213 209 202 204 207 202 195 192 201 216 223 232 216 180 155 225 267 274 205 168 146 137 130 133 141 155 167 171 173 178 183 182 179 179 176 170 165 167 161 156
259 245 229 217 214 205 207 205 207 202 194 198 207 208 195 183 194 167 188 212 219 279 34 93 103 104 107 127 156 164 172 174 179 185 187 186 184 182 179 181 182 172 167
283 267 251 227 220 213 207 199 200 200 196 196 203 204 202 201 184 176 180 192 207 239 33 32 57 111 113 118 142 164 177 177 180 184 187 188 187 187 189 192 196 201 209
292 296 284 256 229 217 209 200 202 198 195 197 201 194 195 199 193 186 178 171 181 218 228 239 289 152 119 106 140 167 179 182 183 184 186 188 186 185 189 197 208 225 252
330 335 329 308 273 226 204 186 196 198 192 193 194 190 187 186 181 180 174 166 162 177 209 209 182 105 99 113 151 188 173 184 184 184 184 183 182 178 178 183 173 161 356
4 16 10 2 12 350 196 182 197 198 194 192 185 189 186 179 172 166 160 156 154 162 181 186 180 163 137 144 158 161 136 159 168 169 167 165 164 162 160 150 136 121 101
15 22 24 22 24 21 23 95 163 168 186 187 183 181 183 174 166 164 158 159 162 155 164 174 170 161 162 148 146 145 135 128 132 142 142 140 136 128 120 113 105 96 84
17 21 25 28 29 24 24 29 72 148 167 180 179 166 166 160 156 155 159 164 160 158 159 163 166 146 137 134 139 130 123 123 118 122 121 116 111 104 98 95 90 84 76
23 24 30 30 30 25 26 25 33 60 105 140 155 153 154 148 146 148 154 157 157 161 152 148 154 140 136 136 117 107 110 115 121 121 113 104 99 93 89 86 82 78 73
27 27 29 26 27 28 25 16 19 44 81 85 95 121 134 142 147 148 155 159 155 150 143 144 143 140 135 135 122 126 117 112 117 116 106 104 96 85 78 77 77 76 72
28 26 28 26 22 24 20 11 4 32 69 83 84 93 103 113 119 132 148 157 155 150 146 146 145 134 141 141 150 147 129 112 98 111 108 97 88 75 65 63 69 74 75
24 25 26 25 25 20 11 17 13 21 64 83 95 100 108 104 106 109 116 128 141 151 158 154 151 151 161 153 147 139 136 130 112 110 103 89 84 77 64 62 69 76 77
19 18 21 23 25 17 16 17 10 20 71 78 83 99 112 110 105 110 107 100 84 85 141 149 145 150 145 155 142 133 134 124 121 132 109 95 88 85 74 68 75 78 79
13 14 18 18 20 22 20 16 8 36 67 82 81 76 88 93 95 111 108 88 71 51 73 105 102 96 94 106 123 131 126 110 101 108 110 107 108 99 89 72 78 82 81
9 19 19 21 23 21 21 19 15 44 63 70 71 67 72 76 66 84 103 101 94 79 73 86 96 98 90 83 96 108 118 122 119 118 105 110 129 119 111 101 90 90 87
8 23 29 32 32 28 27 26 22 52 67 74 69 69 61 58 61 79 116 114 110 109 109 100 93 97 94 89 93 111 127 133 129 123 121 112 147 140 125 134 146 133 98